Погода в Прогрессе

Россия / Новгородская область     58°24′03″N   33°56′13″E
темп.,
°C
ветер,
м/с
пор.,
м/с
влажн.,
%
обл.,
%
осадки,
мм/ч
давл.,
гПа
погр.,
м
24 января, пн
пн2400:00−18ююв2210078 0.0 103432
03:00−18ю2210061 0.0 103328
06:00−13ю279646 0.0 1033125
09:00−12ююз299694 0.0 1032166
12:00−8ююз4129166 0.0 1031370
15:00−6ююз4128771 0.0 1029492
18:00−6ююз41388100 0.0 1027474
21:00−6ююз5148895 0.0 1025516
25 января, вт
вт2500:00−6ююз51490100 0.0 1023481
03:00−6ююз51394100 0.3 1020543
06:00−5ююз41295100 0.5 1018532
09:00−5ююз41195100 1.1 1016479
12:00−4юз41097100 1.1 1014440
15:00−3зюз3797100 2.8 1013414
18:00−2зсз3896100 0.5 1013602
21:00−4ссз5986100 0.5 1015716
26 января, ср
ср2600:00−5ссз498880 0.1 1016507
03:00−12сз269759 0.1 1018100
06:00−17сз249964 0.0 102048
09:00−21сз1110063 0.0 102110
12:00−11зсз12927 0.0 102078
15:00−9з139613 0.0 1019106
18:00−15юз11100100 0.0 10199
21:00−17ю1199100 0.0 101812
27 января, чт
чт2700:00−13ююв2594100 0.0 1016100
03:00−11ююв3991100 0.0 1014208
06:00−10ююв41189100 0.0 1011302
09:00−10ююв4138690 0.0 1009387
12:00−8ююв51488100 0.0 1008515
15:00−7ююв51193100 0.4 1005571
18:00−7ююв51195100 0.5 1004478
21:00−8ююв41094100 0.8 1003357
28 января, пт
пт2800:00−9юв41194100 0.1 1002335
03:00−9юв41195100 0.3 1000359
06:00−8юв41295100 0.4 998411
09:00−7юв41195100 1.3 998450
12:00−6юв4995100 0.8 998435
15:00−5вюв3795100 1.3 998409
18:00−6в2696100 0.9 999297
21:00−6всв2497100 1.7 1000140